Total_Precipitation_Accumulation
0.05 0.05 0.10 0.07 0.07 0.10 0.12 0.13 0.12 0.08 0.06 0.07 0.07 0.08 0.07 0.06 0.06 0.07 0.08 0.10 0.11 0.14 0.16 0.18 0.19 0.21 0.22 0.23 0.25 0.23 0.19 0.21 0.25 0.33 0.37 0.36 0.39 0.62 0.89 0.98 1.00 0.69 0.67
0.02 0.03 0.08 0.08 0.07 0.10 0.12 0.14 0.14 0.11 0.08 0.07 0.07 0.07 0.08 0.06 0.05 0.06 0.07 0.09 0.10 0.11 0.11 0.14 0.16 0.17 0.16 0.17 0.17 0.15 0.16 0.21 0.32 0.42 0.42 0.35 0.43 0.60 0.81 0.82 0.97 0.63 0.56
0.02 0.03 0.06 0.09 0.08 0.09 0.11 0.13 0.14 0.14 0.09 0.07 0.07 0.09 0.11 0.07 0.05 0.06 0.06 0.07 0.08 0.08 0.09 0.11 0.12 0.11 0.09 0.08 0.10 0.13 0.18 0.27 0.41 0.52 0.71 0.45 0.34 0.59 0.76 0.78 0.67 0.47 0.46
0.03 0.03 0.04 0.07 0.09 0.09 0.09 0.11 0.14 0.15 0.11 0.10 0.11 0.11 0.12 0.09 0.06 0.05 0.06 0.06 0.07 0.07 0.07 0.07 0.08 0.07 0.06 0.05 0.07 0.12 0.19 0.31 0.45 0.65 0.86 0.51 0.29 0.44 0.60 0.55 0.46 0.38 0.40
0.06 0.05 0.06 0.08 0.08 0.09 0.09 0.10 0.14 0.17 0.15 0.13 0.15 0.15 0.13 0.11 0.09 0.08 0.08 0.09 0.09 0.08 0.06 0.06 0.06 0.05 0.05 0.06 0.08 0.12 0.17 0.26 0.42 0.61 0.61 0.53 0.54 0.44 0.44 0.46 0.48 0.46 0.42
0.10 0.07 0.08 0.11 0.12 0.11 0.10 0.10 0.13 0.18 0.17 0.15 0.16 0.18 0.16 0.17 0.19 0.14 0.09 0.11 0.12 0.09 0.07 0.06 0.05 0.05 0.05 0.07 0.10 0.14 0.19 0.29 0.36 0.38 0.35 0.36 0.52 0.51 0.44 0.57 0.65 0.62 0.52
0.17 0.12 0.12 0.14 0.14 0.13 0.12 0.13 0.14 0.15 0.15 0.13 0.12 0.12 0.12 0.15 0.22 0.18 0.13 0.12 0.13 0.10 0.07 0.06 0.06 0.06 0.06 0.08 0.11 0.17 0.24 0.33 0.34 0.32 0.31 0.39 0.44 0.39 0.47 0.71 0.86 0.84 0.70
0.38 0.26 0.22 0.22 0.19 0.17 0.15 0.17 0.17 0.16 0.12 0.11 0.09 0.08 0.09 0.10 0.12 0.15 0.16 0.15 0.13 0.10 0.08 0.08 0.08 0.07 0.08 0.10 0.13 0.18 0.24 0.31 0.30 0.32 0.28 0.31 0.32 0.37 0.56 0.78 0.91 0.98 0.89
0.58 0.44 0.36 0.29 0.23 0.22 0.22 0.21 0.19 0.17 0.16 0.13 0.12 0.12 0.12 0.12 0.13 0.15 0.17 0.17 0.17 0.15 0.12 0.09 0.09 0.10 0.11 0.11 0.13 0.17 0.22 0.32 0.38 0.43 0.34 0.37 0.48 0.55 0.75 0.91 0.89 0.94 0.95
0.74 0.60 0.50 0.47 0.44 0.36 0.29 0.27 0.27 0.24 0.23 0.20 0.19 0.18 0.17 0.17 0.18 0.22 0.22 0.22 0.23 0.24 0.20 0.18 0.15 0.13 0.15 0.14 0.15 0.18 0.22 0.24 0.30 0.38 0.38 0.36 0.54 0.69 0.87 0.93 0.96 0.96 0.97
1.12 0.75 0.66 0.64 0.60 0.56 0.47 0.42 0.42 0.40 0.37 0.32 0.34 0.34 0.33 0.35 0.41 0.51 0.43 0.46 0.44 0.45 0.43 0.39 0.36 0.32 0.28 0.22 0.25 0.33 0.28 0.27 0.47 0.56 0.46 0.51 0.65 0.85 1.04 1.04 1.03 1.05 1.06
1.33 0.84 0.71 0.68 0.64 0.64 0.75 0.87 0.75 0.67 0.65 0.59 0.68 0.72 0.74 0.81 0.80 0.68 0.72 0.87 0.97 1.10 1.03 0.94 0.90 0.72 0.57 0.51 0.87 1.07 0.43 0.33 0.42 0.57 0.58 0.59 0.81 1.15 1.33 1.20 1.08 1.04 0.99
1.22 0.95 0.78 0.85 0.87 0.81 0.92 1.08 1.06 0.95 0.95 0.86 0.88 1.01 1.08 1.04 0.99 0.94 1.01 1.20 1.31 1.44 1.41 1.59 1.61 1.28 1.23 1.23 1.36 1.29 0.71 0.67 0.63 0.59 0.74 0.87 0.99 1.29 1.58 1.41 1.20 1.09 0.99
1.54 1.37 1.20 1.21 1.15 1.08 1.08 1.20 1.23 1.19 1.08 1.01 1.11 1.16 1.34 1.40 1.34 1.33 1.41 1.45 1.54 1.68 1.97 1.89 1.99 1.87 1.72 1.61 1.53 1.37 1.11 1.10 1.01 1.01 1.29 1.17 1.08 1.35 1.70 1.59 1.36 1.25 1.16
2.07 2.01 1.78 1.54 1.45 1.38 1.41 1.42 1.42 1.38 1.28 1.34 1.46 1.48 1.57 1.76 1.73 1.76 1.69 1.70 1.62 1.84 2.13 2.19 2.09 2.26 2.28 2.06 1.77 1.60 1.52 1.40 1.27 1.31 1.46 1.39 1.28 1.36 1.63 1.74 1.60 1.49 1.39
2.35 2.39 2.17 1.95 1.84 1.84 1.90 1.93 1.83 1.71 1.75 1.78 1.76 1.72 1.81 2.00 2.18 2.22 2.06 1.99 1.86 1.91 2.09 2.21 2.24 2.67 2.52 2.37 1.93 1.73 1.66 1.62 1.52 1.48 1.53 1.67 1.41 1.27 1.38 1.66 1.83 1.79 1.71
2.67 2.55 2.48 2.42 2.31 2.38 2.32 2.29 2.13 2.09 2.03 1.99 1.97 2.03 2.05 2.08 2.29 2.36 2.32 2.18 2.11 2.10 2.23 2.25 2.43 2.66 2.36 2.23 1.94 1.83 1.73 1.60 1.46 1.49 1.64 1.80 1.64 1.42 1.27 1.38 1.66 1.81 1.87
2.87 2.86 2.86 2.81 2.72 2.73 2.72 2.61 2.48 2.33 2.14 1.97 1.97 2.09 2.12 2.16 2.32 2.39 2.19 2.06 2.31 2.40 2.44 2.53 2.59 2.62 2.46 2.38 2.17 1.84 1.72 1.65 1.32 1.33 1.38 1.40 1.51 1.34 1.42 1.55 1.68 1.75 1.92
3.36 3.45 3.43 3.42 3.19 2.99 2.96 2.95 2.93 2.79 2.49 2.22 2.17 2.18 2.18 2.09 2.15 2.29 2.11 2.15 2.38 2.47 2.45 2.27 2.57 2.54 2.49 2.40 2.04 1.76 1.51 1.35 1.23 1.09 1.07 1.00 1.13 1.17 1.24 1.38 1.53 1.55 1.82
3.55 3.85 3.72 3.63 3.65 3.62 3.51 3.28 3.21 2.92 2.60 2.48 2.44 2.43 2.30 2.18 2.19 2.31 2.17 2.24 2.38 2.44 2.38 2.38 2.51 2.54 2.37 2.33 1.87 1.55 1.33 1.08 1.07 1.02 0.87 0.90 0.92 0.89 0.93 1.12 1.41 1.24 1.56
3.74 3.93 4.01 4.22 4.18 3.97 3.64 3.25 3.05 2.88 2.74 2.58 2.42 2.23 2.17 2.17 2.23 2.38 2.25 2.39 2.39 2.22 2.21 2.36 2.49 2.36 2.14 2.30 2.06 1.47 1.07 0.87 0.88 0.83 0.84 0.91 0.87 0.87 0.99 1.23 1.35 1.28 1.24
3.51 3.84 3.85 3.60 3.54 3.49 3.30 3.12 3.06 3.13 2.81 2.52 2.35 2.12 1.98 2.02 2.09 2.06 2.09 2.06 2.09 2.14 2.15 2.21 2.37 2.17 1.83 2.04 2.02 1.74 1.16 0.91 0.78 0.68 0.81 0.84 0.84 0.94 1.02 1.16 1.41 1.54 1.42
2.61 2.80 2.89 2.93 2.79 2.66 2.59 2.60 2.64 2.73 2.47 2.20 2.09 1.99 1.83 1.76 1.72 1.71 1.72 1.84 2.05 2.15 2.11 2.13 2.15 2.02 1.70 1.71 1.86 1.93 1.42 1.05 0.83 0.58 0.62 0.75 0.91 1.08 1.08 1.25 1.38 1.51 1.58
2.20 2.24 2.25 2.23 2.26 2.18 2.16 2.16 2.08 2.04 1.92 1.84 1.81 1.72 1.66 1.58 1.52 1.48 1.50 1.54 1.62 1.70 1.74 1.66 1.77 1.89 1.84 1.65 1.74 1.78 1.63 1.44 1.26 0.83 0.65 0.69 0.87 0.99 1.09 1.11 1.14 1.23 1.51
1.53 1.68 1.76 1.79 1.81 1.80 1.79 1.76 1.73 1.67 1.66 1.63 1.53 1.44 1.37 1.33 1.37 1.33 1.28 1.26 1.23 1.29 1.42 1.45 1.55 1.60 1.64 1.61 1.64 1.71 1.67 1.63 1.58 1.38 1.00 0.95 0.93 0.84 0.92 1.01 1.05 1.10 1.38
1.23 1.38 1.48 1.55 1.55 1.53 1.53 1.52 1.48 1.43 1.41 1.37 1.30 1.27 1.23 1.18 1.11 1.08 1.09 1.12 1.12 1.16 1.25 1.33 1.40 1.36 1.44 1.49 1.52 1.60 1.66 1.64 1.67 1.67 1.35 1.20 1.09 0.93 0.95 0.92 0.93 1.00 1.22